Weather Roundup
Issued by NWS Chicago, IL

Home | Current Version | Previous Version | Text Only | Print | Product List | Glossary Off
Versions: 1 2 3 4 5 6 7 8 9 10 11 12 13 14 15 16 17 18 19 20 21 22 23 24 25 26 27 28 29 30 31 32 33 34 35 36 37 38 39 40 41 42 43 44 45 46 47 48 49 50

000
NZUS59 KLOT 221800
HRRLOT

CHICAGO AREA WEATHER ROUNDUP
NATIONAL WEATHER SERVICE CHICAGO/ROMEOVILLE IL
100 PM CDT TUE JUL 22 2014

NOTE: "FAIR" INDICATES FEW OR NO CLOUDS BELOW 12,000 FEET WITH NO
SIGNIFICANT WEATHER AND/OR OBSTRUCTIONS TO VISIBILITY.

* THESE STATIONS ARE NOT UNDER NWS QUALITY CONTROL. THEY ALSO MAY NOT
  REPORT WEATHER SUCH AS PRECIPITATION OR FOG.

ILZ005-006-012>014-019>023-221900-
NORTHEAST ILLINOIS

CITY           SKY/WX    TMP DP  RH WIND       PRES   REMARKS
OHARE          PTSUNNY   86  68  54 SW14G21   29.98F HX  89
6HR MIN TEMP:  73; 6HR MAX TEMP:  87;

MIDWAY         PTSUNNY   87  70  56 SW15G23   29.99F HX  92
6HR MIN TEMP:  73; 6HR MAX TEMP:  88;

AURORA         PTSUNNY   85  71  63 SW14      29.99F HX  90
6HR MIN TEMP:  68; 6HR MAX TEMP:  86;

WAUKEGAN       MOSUNNY   88  70  55 SW16G26   29.94F HX  93
6HR MIN TEMP:  72; 6HR MAX TEMP:  88;

DUPAGE AIRPORT PTSUNNY   88  71  57 SW20G25   29.98F HX  94
6HR MIN TEMP:  70; 6HR MAX TEMP:  88;

WHEELING       PTSUNNY   88  70  55 S15       29.97F HX  93
6HR MIN TEMP:  74; 6HR MAX TEMP:  88;

NORTHERLY IS     N/A     84  66  54 S13         N/A  HX  86
$$

WIZ051-052-058>065-066-070>072-221900-
SOUTHEAST WISCONSIN

CITY           SKY/WX    TMP DP  RH WIND       PRES   REMARKS
MILWAUKEE      MOSUNNY   88  71  57 SW15G24   29.93F HX  94
6HR MIN TEMP:  72; 6HR MAX TEMP:  88;

KENOSHA*       MOSUNNY   87  72  60 SW13G22   29.95F HX  93
RACINE*        MOSUNNY   87  72  60 SW10G21   29.95F HX  93
WAUKESHA         N/A    N/A N/A N/A SW13G20   29.95F
$$

INZ001>003-010>013-019-020-221900-
NORTHWEST INDIANA

CITY           SKY/WX    TMP DP  RH WIND       PRES   REMARKS
GARY*          PTSUNNY   86  68  54 SW12G23   30.01F HX  89
MICHIGAN CITY* NOT AVBL
RENSSELAER*    NOT AVBL
VALPARAISO     SUNNY     84  67  56 SW14      30.04F HX  86
$$

LMZ740>746-221900-
SOUTHERN LAKE MICHIGAN

STATION/POSITION TIME  SKY/WX   TEMP WIND        PRES    VSBY
                                AIR  DIR/SP/G
                 (UTC)          (F)  (DEG/KT/KT) (MB)    (MI)
HARRISON CRIB    1700            81  210/ 20/ 26   N/A
BURNHAM HARBOR   1800            85  180/ 10/ 18   N/A
CALUMET HARBOR   1700            84  220/  9/ 14 1014.6F
BURNS HARBOR     1700            80  210/ 12/ 19 1017.3S
MICHIGAN CITY    1700            79  200/ 14/ 19   N/A
$$

ABBREVIATIONS USED IN REMARKS
   TC - TEMPERATURE IN CELSIUS
  WCI - WIND CHILL INDEX
   HX - HEAT INDEX
  VSB - VISIBILITY
$$



USA.gov is the U.S. government's official web portal to all federal, state and local government web resources and services.